Content
SEND FEEDBACK

Daily
Averages
Monthly
Summary
Italy

BARI, ITALY


Home > Europe > Italy
Elevation: 144 feet     Latitude: 41 08N     Longitude: 016 47E

WEATHER
 
SELECT A DAY
Number of Records: 299,596;   Date Range: 7/1/96 - 10/1/14
 
SHARE

PRINT THIS DATA

[ ← Previous Day ]
WEATHER ALMANAC - JANUARY 6, 2013
[ Next Day → ]
[ °C ]   °F
Weather ElementAverageHighLow
Temperature52.7 °F57.2 °F (11:50 am)44.6 °F (10:50 pm)
Dewpoint38.3 °F41 °F (12:20 pm)30.2 °F (6:50 am)
Humidity58.9 %76 % (7:50 pm)41 % (6:50 am)
Barometer30.07 in30.12 in (8:20 am)30.04 in (12:50 am)
Wind Speed13.1 mph21.9 mph (2:50 pm)
Weather ElementAverage
Visibility6.2 mi
Wind DirectionWSW (231.7 °)

Weather ElementTotal
Precipitation---
Heating Degree Days14.1 (Base 65)
Growing Degree Days0.9 (Base 50)
Averaged from 46 records on January 6, 2013
WEATHER CONDITIONS BREAKOUT
WIND DIRECTION BREAKOUT
WEATHER BY HOUR - JANUARY 6, 2013
[ °C ]   °F
Local TimeTemperatureDewpointHumidityBarometerVisibilityWind DirectionWind SpeedGust SpeedPrecipitationEventsConditions
12:50 AM55.4 °F39.2 °F54 %30.04 in6.2 miNorth (10°)19.6 mphScattered Clouds
1:20 AM55.4 °F37.4 °F51 %30.04 in6.2 miNorth (10°)17.3 mphScattered Clouds
1:50 AM55.4 °F39.2 °F54 %30.04 in6.2 miNorth (10°)19.6 mphScattered Clouds
2:20 AM55.4 °F37.4 °F51 %30.04 in6.2 miNorth (10°)17.3 mphScattered Clouds
2:50 AM55.4 °F39.2 °F54 %30.04 in6.2 miNorth (10°)12.7 mphScattered Clouds
3:20 AM55.4 °F37.4 °F51 %30.04 in6.2 miNorth (10°)11.5 mphScattered Clouds
3:50 AM55.4 °F39.2 °F54 %30.04 in6.2 miNorth (10°)12.7 mphScattered Clouds
4:20 AM55.4 °F37.4 °F51 %30.04 in6.2 miNorth (10°)11.5 mphScattered Clouds
4:50 AM55.4 °F39.2 °F54 %30.04 in6.2 miNorth (10°)12.7 mphScattered Clouds
5:20 AM55.4 °F37.4 °F51 %30.04 in6.2 miNorth (10°)11.5 mphScattered Clouds
5:50 AM53.6 °F33.8 °F47 %30.06 in6.2 miNorth (10°)12.7 mphScattered Clouds
6:50 AM53.6 °F30.2 °F41 %30.09 in6.2 miNorth (10°)15.0 mphPartly Cloudy
7:20 AM51.8 °F32.0 °F47 %30.09 inNorth (10°)12.7 mphClear
7:50 AM51.8 °F33.8 °F50 %30.09 inNorth (360°)15.0 mphClear
8:20 AM53.6 °F32.0 °F44 %30.12 inNorth (360°)16.1 mphClear
8:50 AM53.6 °F33.8 °F47 %30.12 in6.2 miNorth (360°)18.4 mphPartly Cloudy
9:20 AM55.4 °F39.2 °F54 %30.12 in6.2 miNorth (360°)17.3 mphPartly Cloudy
9:50 AM53.6 °F39.2 °F58 %30.12 in6.2 miNorth (350°)13.8 mphPartly Cloudy
10:20 AM53.6 °F39.2 °F58 %30.12 in6.2 miNNW (330°)13.8 mphPartly Cloudy
10:50 AM55.4 °F39.2 °F54 %30.12 in6.2 miNNW (330°)15.0 mphPartly Cloudy
11:20 AM55.4 °F39.2 °F54 %30.12 in6.2 miNorth (350°)16.1 mphPartly Cloudy
11:50 AM57.2 °F37.4 °F48 %30.12 in6.2 miNorth (350°)18.4 mphPartly Cloudy
12:20 PM55.4 °F41.0 °F58 %30.12 in6.2 miNNW (340°)13.8 mphPartly Cloudy
12:50 PM55.4 °F39.2 °F54 %30.09 in6.2 miNorth (350°)17.3 mphPartly Cloudy
1:20 PM55.4 °F39.2 °F54 %30.09 in6.2 miNNW (330°)18.4 mphPartly Cloudy
1:50 PM55.4 °F41.0 °F58 %30.09 in6.2 miNNW (330°)15.0 mphPartly Cloudy
2:20 PM55.4 °F41.0 °F58 %30.09 in6.2 miNNW (340°)18.4 mphPartly Cloudy
2:50 PM55.4 °F39.2 °F54 %30.06 in6.2 miNorth (350°)21.9 mphPartly Cloudy
3:20 PM55.4 °F39.2 °F54 %30.06 in6.2 miNorth (350°)19.6 mphPartly Cloudy
3:50 PM53.6 °F39.2 °F58 %30.06 in6.2 miNorth (360°)17.3 mphPartly Cloudy
4:20 PM53.6 °F39.2 °F58 %30.06 in6.2 miNorth (350°)16.1 mphPartly Cloudy
4:50 PM53.6 °F39.2 °F58 %30.06 in6.2 miNorth (350°)16.1 mphPartly Cloudy
5:20 PM53.6 °F41.0 °F62 %30.06 in6.2 miNNW (340°)11.5 mphPartly Cloudy
5:50 PM51.8 °F41.0 °F67 %30.06 in6.2 miWest (260°)5.8 mphPartly Cloudy
6:20 PM50.0 °F41.0 °F71 %30.06 in6.2 miWNW (290°)6.9 mphPartly Cloudy
6:50 PM51.8 °F41.0 °F67 %30.06 in6.2 miWest (270°)8.1 mphPartly Cloudy
7:20 PM50.0 °F41.0 °F71 %30.06 in6.2 miNNW (340°)4.6 mphPartly Cloudy
7:50 PM48.2 °F41.0 °F76 %30.06 in6.2 miWest (270°)6.9 mphPartly Cloudy
8:20 PM46.4 °F39.2 °F76 %30.06 in6.2 miWNW (290°)8.1 mphPartly Cloudy
8:50 PM46.4 °F39.2 °F76 %30.06 in6.2 miWNW (290°)6.9 mphPartly Cloudy
9:20 PM46.4 °F39.2 °F76 %30.04 in6.2 miWest (280°)6.9 mphPartly Cloudy
9:50 PM46.4 °F39.2 °F76 %30.04 in6.2 miWest (280°)6.9 mphPartly Cloudy
10:20 PM46.4 °F37.4 °F71 %30.04 in6.2 miWest (260°)4.6 mphPartly Cloudy
10:50 PM44.6 °F37.4 °F76 %30.04 in6.2 miWSW (240°)8.1 mphPartly Cloudy
11:20 PM44.6 °F37.4 °F76 %30.04 in6.2 miWest (260°)4.6 mphPartly Cloudy
11:50 PM44.6 °F37.4 °F76 %30.04 in6.2 miWest (260°)5.8 mphPartly Cloudy
Hourly data recorded from LIBD, located miles away from Bari, Italy







STORIES FROM OUR PARTNERS